COSMOS 1975

Last updated on Wed Nov 05 2025 00:02:14 GMT+0000 (Coordinated Universal Time)

1 19573U 88093A 25308.29056537 .00011861 00000+0 46566-3 0 9994 2 19573 82.5216 243.2891 0009374 250.6662 109.3563 15.25551582 275
UTC large
Height (km)
Speed (km/s)
/
Latitude / Longitude
Inclination (degrees)
Orbital Period (minutes)
Azimuth
Elevation
Range (km)
Doppler Factor

Next 0 passes for location: London (51.5072 / 0.1276)

Sorry there are no passes over London.